sat.trackr.live / text

‹ back to catalog

SHIYAN-25 (SY-25)

NORAD 57047 · 2023-087A

PAYLOAD ACTIVE UNKNOWN

§ Identity

Operator
Country
PRC
Launch date
2023-06-20
Launch site
TAISC
Launch vehicle
Mass (kg)
RCS (m²)

External: N2YO · Heavens-Above · Gunter

§ Orbital elements

Epoch: 2026-09-21T22:08:19.264416Z

Period
89.95 min
Inclination
96.9080°
Eccentricity
0.0011141
Mean motion
16.00967052 rev/d
Perigee alt
264.3 km
Apogee alt
279.1 km
Semi-major
6,649.9 km
B*
2.4773e-4
RAAN
329.8921°
Arg perigee
225.0421°
Mean anomaly
134.9956°
Rev number
19,027

§ Raw data

SHIYAN-25 (SY-25)1 57047U 23087A   26264.92244519  .00132991  92598-5  24773-3 0  99982 57047  96.9080 329.8921 0011141 225.0421 134.9956 16.00967052190277

JSON: /api/v1/satellites/57047 · /tle

For live sub-satellite position, see the globe view (requires WebGL).

§ Visibility from observer

Set your observer location to see the next 7 days of passes ≥ 10°. The values pass through the URL so the page stays shareable.

No JS? Fill the form by hand. The geolocation button needs JavaScript.